Location: Long Island Community Building
(39.9491°N, 99.5338°W)
Time: 11:12:35
(UTC+00:00)

GEOS 3 Rocket - Pass Details

Date: 06 December 2019
Orbit: 782 x 837 km, 115.0° (Epoch: 23 January)

Event Time Altitude Azimuth Distance (km) Brightness Sun altitude
Rises 12:01:35 0° 165° (SSE) 3,253 7.2 -19.3°
Reaches altitude 10° 12:03:59 10° 173° (S) 2,330 6.3 -18.8°
Maximum altitude 12:08:40 39° 241° (WSW) 1,174 4.1 -18.0°
Enters shadow 12:10:17 31° 280° (W) 1,368 4.2 -17.7°
